Regional Weather Roundup
Issued by NWS San Diego, CA

Home | Current Version | Previous Version | Text Only | Print | Product List | Glossary On
Versions: 1 2 3 4 5 6 7 8 9 10 11 12 13 14 15 16 17 18 19 20 21 22 23 24 25 26 27 28 29 30 31 32 33 34 35 36 37 38 39 40 41 42 43 44 45 46 47 48 49 50
159
ASUS46 KSGX 190511
RWRSGX

SAN DIEGO HOURLY WEATHER ROUNDUP
NATIONAL WEATHER SERVICE SAN DIEGO CA
900 PM PST WED JAN 18 2017

NOTE: "FAIR" INDICATES FEW OR NO CLOUDS BELOW 12,000 FEET WITH NO
SIGNIFICANT WEATHER AND/OR OBSTRUCTIONS TO VISIBILITY.

CAZ042-043-060-061-PZZ750-775-190600-

GREATER SAN DIEGO AREA

CITY           SKY/WX    TMP DP  RH WIND       PRES   REMARKS
SAN DIEGO AP   LGT RAIN  58  49  72 CALM      30.16F
NATIONAL CITY    N/A     57  51  79 CALM      30.16F
CHULA VISTA      N/A     57  52  85 CALM      30.09R
IMPERIAL BEACH LGT RAIN  59  49  69 NW3       30.16F
BROWN FIELD    LGT RAIN  55  50  83 CALM      30.15F
MIRAMAR MCAS   LGT RAIN  56  51  84 SE6       30.13F
MONTGOMERY FLD LGT RAIN  54  49  83 CALM      30.14F

$$

NORTH SAN DIEGO COUNTY

CITY           SKY/WX    TMP DP  RH WIND       PRES   REMARKS
CAMP PENDLETON LGT RAIN  54  51  90 NE3       30.11F
OCEANSIDE AP   LGT RAIN  56  51  84 SE3       30.10F
OCEANSIDE HBR    N/A     56  52  86 SE2       30.14F
VISTA            N/A     54  49  84 CALM      30.11F
CARLSBAD       LGT RAIN  55  52  89 SE5       30.11F
DEL MAR          N/A     55  51  87 CALM      30.15F
LA JOLLA SCRIP   N/A     55  52  88 E3        30.13F
FALLBROOK        N/A     52  52  99 CALM      30.11F
ESCONDIDO        N/A     54  50  86 SE3       30.15F
SAN MARCOS       N/A     54  49  82 CALM      30.14F

$$

EAST SAN DIEGO COUNTY

CITY           SKY/WX    TMP DP  RH WIND       PRES   REMARKS
RAMONA         CLOUDY    50  49  96 CALM      30.13F
SANTEE LAKES     N/A     54  51  87 CALM      30.15F
LA MESA          N/A     54  49  86 CALM      30.10S
JAMUL            N/A     51  48  88 CALM      30.18R
DESCANSO N       N/A     42  40  95 W3        30.12S
CAMPO            N/A     46  45  96 S8        30.08F

$$

ORANGE COUNTY AND THE LOS ANGELES BASIN

CITY           SKY/WX    TMP DP  RH WIND       PRES   REMARKS
JOHN WAYNE AP  CLOUDY    55  50  83 SW9       30.12R
LAGUNA BEACH     N/A     53  51  93 CALM      30.07S
LOS ALAMITOS   CLOUDY    54  51  91 S3        30.11R
FULLERTON      LGT RAIN  55  51  86 CALM      30.10F
LONG BEACH     CLOUDY    54  50  86 SE7       30.10F
L.A. AP        LGT RAIN  54  50  86 SE10      30.09R
L.A. DOWNTOWN  CLOUDY    55  50  83 VRB7      30.07F

$$

THE INLAND EMPIRE

CITY           SKY/WX    TMP DP  RH WIND       PRES   REMARKS
CORONA         CLOUDY    51  47  86 E3        30.12F
CHINO          LGT RAIN  53  47  79 CALM      30.12F
ONTARIO        LGT RAIN  52  46  80 CALM      30.11S
SAN BERNARDINO CLOUDY    54  45  71 CALM      30.13S HAZE
RIVERSIDE AP   LGT RAIN  53  47  79 CALM      30.12S
MORENO VALLEY    N/A     49  48  95 CALM      28.22F
MARCH ARB      LGT RAIN  50  50 100 CALM      30.10F
HORSETHIEF CYN   N/A     51  42  70 CALM      30.14F
PERRIS           N/A     50  48  93 CALM      30.14F
HEMET EAST       N/A     49  43  80 CALM      30.19S
FRENCH VALLEY  NOT AVBL
TEMECULA         N/A     52  50  93 S6        30.17F

$$

SAN BERNARDINO AND RIVERSIDE COUNTY MOUNTAINS

CITY           SKY/WX    TMP DP  RH WIND       PRES   REMARKS
BIG BEAR AP    LGT SNOW  28  27  93 W9G16     30.05F WCI  20
PINE COVE        N/A     31  30  94 NW1       30.09F

$$

SOUTHERN DESERT INCLUDING THE COACHELLA VALLEY

CITY           SKY/WX    TMP DP  RH WIND       PRES   REMARKS
PALM SPRINGS   CLOUDY    58  37  45 S3        30.06S
PALM DESERT      N/A     58  37  46 CALM        N/A
THERMAL        CLOUDY    55  40  56 NW5       30.04R
BLYTHE         CLOUDY    57  33  40 SW6       30.04S
IMPERIAL AP    CLOUDY    61  44  53 SW12      30.05S
EL CENTRO NAS  CLOUDY    60  44  55 SW13      30.07F
YUMA AZ        MOCLDY    53  33  46 CALM      30.07
MEXICALI       CLOUDY    57  39  51 SW5       30.08R

$$

UPPER DESERT

CITY           SKY/WX    TMP DP  RH WIND       PRES   REMARKS
VICTORVILLE AP RAIN      45  37  76 S20       29.99F
HESPERIA         N/A     45  37  73 W12       30.18F
PALMDALE       CLOUDY    51  39  63 SW15G28   29.99F
LANCASTER      CLOUDY    47  39  74 W16       30.01S
EDWARDS AFB    CLOUDY    45  42  88 SW13      29.97F
DAGGETT        CLOUDY    47  41  80 W5        30.02S
29 PALMS N     LGT RAIN  51  38  60 SW6       30.10F
NEEDLES        MOCLDY    56  29  35 W9        30.01F

$$

REGIONAL REPORTS

CITY           SKY/WX    TMP DP  RH WIND       PRES   REMARKS
SANTA BARBARA  CLOUDY    54  51  90 SE14      30.04S
SANDBERG       FOG       38  37  97 S28G41    29.97F VSB<1/4 WCI  26
LAS VEGAS NV   CLOUDY    56  25  30 SW7       29.94R
PHOENIX AZ     PTCLDY    54  41  61 SW3       30.05R
TIJUANA        CLOUDY    54  46  76 CALM      30.18S
ENSENADA NW      N/A     57  32  39 CALM      30.15S

$$

OFFSHORE ISLANDS

CITY           SKY/WX    TMP DP  RH WIND       PRES   REMARKS
CATALINA ARPT  CLOUDY    49  47  93 SE14G21   30.06F
SAN NICOLAS IS CLOUDY    53  32  44 SE18      30.03F

$$

MARINE AND OFFSHORE BUOY REPORTS

STATION/POSITION SKY/WX   TEMP    WIND        PRES    VSBY  SWELL
                          AIR SEA DIR/SP/G                  HT/PER/DIR
                          (F)     (DEG/KT/KT) (MB)    (MI)  (FT/S/D)
TANNER BANKS               58 60  140/ 19/ 21 1016.3F         7/280/14
S CLEMENTE BASIN           56 61  130/  2/  4 1020.5F         7/290/15
SAN NICOLAS IS.               60                N/A           7/300/13
SO. S. ROSA ISLA           56 57  150/ 17/ 21 1015.8F         7/280/14
W. S. BARBARA CH           57 58  130/ 21/ 25 1015.2F         7/280/14
M. S. BARBARA CH                  110/ 17/ 21 1017.8F
S. MONICA BASIN            57 59  130/ 16/ 17 1017.8F         3/260/14
S PEDRO CHANNEL               60                N/A           3/270/13
CMP PENDLETON NS              59                N/A           2/230/15
OCEANSIDE OFFSHR              60                N/A           2/240/14
TORREY PINES OTR              60                N/A           3/260/13
POINT LOMA SOUTH              60                N/A           3/270/14

$$





USA.gov is the U.S. government's official web portal to all federal, state and local government web resources and services.